PST,Max TemperatureF,Mean TemperatureF,Min TemperatureF,Max Dew PointF,MeanDew PointF,Min DewpointF,Max Humidity, Mean Humidity, Min Humidity, Max Sea Level PressureIn, Mean Sea Level PressureIn, Min Sea Level PressureIn, Max VisibilityMiles, Mean VisibilityMiles, Min VisibilityMiles, Max Wind SpeedMPH, Mean Wind SpeedMPH, Max Gust SpeedMPH,PrecipitationIn, CloudCover, Events, WindDirDegrees
2012-1-1,62,50,37,44,40,35,89,66,42,30.18,30.15,30.10,10,8,2,21,12,28,0.00,0,,85
2012-1-2,62,48,34,50,41,33,100,82,64,30.32,30.26,30.16,10,5,0,13,3,15,0.00,2,Fog,282
2012-1-3,60,49,37,48,43,37,100,80,60,30.36,30.31,30.26,10,5,0,7,1,23,0.00,2,Fog,349
2012-1-4,67,50,32,44,38,32,100,71,42,30.39,30.32,30.27,10,7,0,8,2,21,0.00,0,Fog,302
2012-1-5,64,49,33,47,39,32,100,74,48,30.31,30.22,30.13,10,8,0,8,3,17,0.00,0,Fog,177
2012-1-6,58,43,28,44,33,27,100,81,61,30.18,30.16,30.10,10,4,0,7,1,28,0.00,2,Fog,2
2012-1-7,69,48,26,38,28,16,100,58,15,30.21,30.16,30.09,10,5,0,29,12,36,0.00,1,Fog,14
2012-1-8,65,50,34,33,26,15,76,47,17,30.22,30.18,30.14,10,10,10,14,5,21,0.00,0,,76
2012-1-9,65,46,27,37,32,25,85,60,34,30.25,30.19,30.14,10,10,8,15,4,18,0.00,0,,37
2012-1-10,63,47,30,38,32,28,92,66,39,30.17,30.12,30.06,10,9,6,8,2,16,0.00,0,,290
2012-1-11,66,46,26,37,30,24,92,62,31,30.14,30.07,30.01,10,10,8,9,2,10,0.00,0,,304
2012-1-12,67,47,26,37,28,25,92,58,24,30.12,30.08,30.02,10,7,0,13,3,187,0.00,0,Fog,31
2012-1-13,68,50,31,34,29,24,72,48,24,30.22,30.16,30.13,10,10,10,16,7,21,0.00,0,,65
2012-1-14,65,46,27,38,29,23,92,60,28,30.19,30.13,30.07,10,10,9,13,4,16,0.00,0,,34
2012-1-15,56,41,26,42,33,25,100,75,50,30.15,30.05,29.97,10,7,0,18,7,25,0.00,3,Fog,249
2012-1-16,52,37,21,28,22,17,81,54,26,30.32,30.24,30.15,10,10,10,10,4,15,0.00,0,,278
2012-1-17,53,36,19,36,26,15,88,65,41,30.42,30.35,30.32,10,10,10,10,3,21,0.00,0,,300
2012-1-18,56,41,26,40,33,25,92,73,54,30.40,30.33,30.25,10,10,10,9,3,12,0.00,3,,339
2012-1-19,53,41,29,47,39,28,100,86,71,30.24,30.14,30.03,10,5,0,16,5,26,0.26,6,Fog-Rain,123
2012-1-20,57,52,46,55,49,44,96,91,86,30.04,29.88,29.68,10,3,1,24,12,31,1.92,8,Rain,128
2012-1-21,56,47,38,51,43,36,93,74,55,30.13,29.92,29.68,10,10,5,25,11,31,0.07,5,Rain,258
2012-1-22,52,45,38,49,42,36,93,82,71,30.15,30.01,29.78,10,7,1,24,9,33,0.63,7,Rain,106
2012-1-23,57,49,41,52,47,41,100,81,61,30.16,29.86,29.62,10,6,0,22,7,28,1.12,7,Fog-Rain,158
2012-1-24,57,49,41,48,45,39,100,86,71,30.41,30.29,30.15,10,6,0,10,1,75,0.00,6,Fog,278
2012-1-25,64,52,40,53,47,39,96,76,56,30.45,30.38,30.32,10,10,8,10,3,13,0.00,4,,151
2012-1-26,65,56,46,55,51,45,100,84,67,30.35,30.29,30.21,10,5,0,14,5,17,0.00,6,Fog,229
2012-1-27,71,54,36,52,37,16,100,56,12,30.27,30.23,30.18,10,6,0,17,4,21,0.00,2,Fog,289
2012-1-28,64,46,27,35,29,24,85,55,25,30.34,30.27,30.22,10,10,10,17,5,22,0.00,0,,63
2012-1-29,65,50,34,46,38,31,86,65,43,30.27,30.20,30.10,10,10,10,10,4,13,0.00,1,,339
2012-1-30,59,49,38,48,43,37,100,78,55,30.10,30.05,30.00,10,7,0,10,3,39,0.00,4,Fog,207
2012-1-31,56,48,39,48,45,38,100,86,72,30.19,30.12,30.06,10,8,2,16,4,20,0.00,5,,280